Вернуться в каталог

CZ-4 DEB

АктивенSSO
NORAD 27687·DEBRIS·🇨🇳 China

Запущен Oct 14, 1999 с Taiyuan Satellite Launch Center

Loading…

Ближайшие Пролёты (ближайшие 24 часа)

TLE

СвежийSource: Space-Track

Эпоха: Sep 14, 2026, 09:07 UTC

1 27687U 99057MT  26257.38004424  .00000081  00000-0  40565-4 0  9990
2 27687  98.7429 302.2672 0087115 233.6079 125.7049 14.38206494266255

Отслеживайте CZ-4 DEB в реальном времени с AllMySat

Download on the App Store